Year,Month,Day,Hour,Minute,Value (Times are PST for temperature in C)
2013,08,10,00,00,16.60
2013,08,10,00,01,16.60
2013,08,10,00,02,16.60
2013,08,10,00,03,16.50
2013,08,10,00,04,16.50
2013,08,10,00,05,16.40
2013,08,10,00,06,16.40
2013,08,10,00,07,16.30
2013,08,10,00,08,16.30
2013,08,10,00,09,16.30
2013,08,10,00,10,16.20
2013,08,10,00,11,16.20
2013,08,10,00,12,16.20
2013,08,10,00,13,16.10
2013,08,10,00,14,16.10
2013,08,10,00,15,16.00
2013,08,10,00,16,16.00
2013,08,10,00,17,15.90
2013,08,10,00,18,15.90
2013,08,10,00,19,15.90
2013,08,10,00,20,15.80
2013,08,10,00,21,15.80
2013,08,10,00,22,15.80
2013,08,10,00,23,15.80
2013,08,10,00,24,15.70
2013,08,10,00,25,15.70
2013,08,10,00,26,15.70
2013,08,10,00,27,15.60
2013,08,10,00,28,15.60
2013,08,10,00,29,15.60
2013,08,10,00,30,15.50
2013,08,10,00,31,15.50
2013,08,10,00,32,15.50
2013,08,10,00,33,15.50
2013,08,10,00,34,15.40
2013,08,10,00,35,15.40
2013,08,10,00,36,15.40
2013,08,10,00,37,15.40
2013,08,10,00,38,15.40
2013,08,10,00,39,15.40
2013,08,10,00,40,15.40
2013,08,10,00,41,15.40
2013,08,10,00,42,15.40
2013,08,10,00,43,15.40
2013,08,10,00,44,15.40
2013,08,10,00,45,15.40
2013,08,10,00,46,15.40
2013,08,10,00,47,15.40
2013,08,10,00,48,15.40
2013,08,10,00,49,15.40
2013,08,10,00,50,15.40
2013,08,10,00,51,15.40
2013,08,10,00,52,15.40
2013,08,10,00,53,15.40
2013,08,10,00,54,15.40
2013,08,10,00,55,15.40
2013,08,10,00,56,15.50
2013,08,10,00,57,15.50
2013,08,10,00,58,15.50
2013,08,10,00,59,15.60
2013,08,10,01,00,15.60
2013,08,10,01,01,15.60
2013,08,10,01,02,15.70
2013,08,10,01,03,15.70
2013,08,10,01,04,15.70
2013,08,10,01,05,15.80
2013,08,10,01,06,15.80
2013,08,10,01,07,15.80
2013,08,10,01,08,15.90
2013,08,10,01,09,15.90
2013,08,10,01,10,15.90
2013,08,10,01,11,15.90
2013,08,10,01,12,16.00
2013,08,10,01,13,16.00
2013,08,10,01,14,16.00
2013,08,10,01,15,16.00
2013,08,10,01,16,16.00
2013,08,10,01,17,16.00
2013,08,10,01,18,16.00
2013,08,10,01,19,16.00
2013,08,10,01,20,16.00
2013,08,10,01,21,16.00
2013,08,10,01,22,15.90
2013,08,10,01,23,15.90
2013,08,10,01,24,15.90
2013,08,10,01,25,15.80
2013,08,10,01,26,15.80
2013,08,10,01,27,15.80
2013,08,10,01,28,15.70
2013,08,10,01,29,15.60
2013,08,10,01,30,15.60
2013,08,10,01,31,15.50
2013,08,10,01,32,15.50
2013,08,10,01,33,15.40
2013,08,10,01,34,15.40
2013,08,10,01,35,15.30
2013,08,10,01,36,15.30
2013,08,10,01,37,15.20
2013,08,10,01,38,15.20
2013,08,10,01,39,15.20
2013,08,10,01,40,15.10
2013,08,10,01,41,15.10
2013,08,10,01,42,15.00
2013,08,10,01,43,15.00
2013,08,10,01,44,15.00
2013,08,10,01,45,14.90
2013,08,10,01,46,14.90
2013,08,10,01,47,14.90
2013,08,10,01,48,14.90
2013,08,10,01,49,14.90
2013,08,10,01,50,14.90
2013,08,10,01,51,14.80
2013,08,10,01,52,14.80
2013,08,10,01,53,14.80
2013,08,10,01,54,14.80
2013,08,10,01,55,14.80
2013,08,10,01,56,14.80
2013,08,10,01,57,14.80
2013,08,10,01,58,14.80
2013,08,10,01,59,14.80
2013,08,10,02,00,14.70
2013,08,10,02,01,14.70
2013,08,10,02,02,14.70
2013,08,10,02,03,14.70
2013,08,10,02,04,14.70
2013,08,10,02,05,14.70
2013,08,10,02,06,14.70
2013,08,10,02,07,14.70
2013,08,10,02,08,14.70
2013,08,10,02,09,14.70
2013,08,10,02,10,14.70
2013,08,10,02,11,14.70
2013,08,10,02,12,14.70
2013,08,10,02,13,14.70
2013,08,10,02,14,14.70
2013,08,10,02,15,14.70
2013,08,10,02,16,14.70
2013,08,10,02,17,14.70
2013,08,10,02,18,14.70
2013,08,10,02,19,14.70
2013,08,10,02,20,14.60
2013,08,10,02,21,14.60
2013,08,10,02,22,14.50
2013,08,10,02,23,14.40
2013,08,10,02,24,14.30
2013,08,10,02,25,14.30
2013,08,10,02,26,14.20
2013,08,10,02,27,14.10
2013,08,10,02,28,14.00
2013,08,10,02,29,13.90
2013,08,10,02,30,13.80
2013,08,10,02,31,13.80
2013,08,10,02,32,13.80
2013,08,10,02,33,13.70
2013,08,10,02,34,13.60
2013,08,10,02,35,13.50
2013,08,10,02,36,13.40
2013,08,10,02,37,13.30
2013,08,10,02,38,13.10
2013,08,10,02,39,13.00
2013,08,10,02,40,12.90
2013,08,10,02,41,12.80
2013,08,10,02,42,12.70
2013,08,10,02,43,12.70
2013,08,10,02,44,12.60
2013,08,10,02,45,12.60
2013,08,10,02,46,12.60
2013,08,10,02,47,12.50
2013,08,10,02,48,12.50
2013,08,10,02,49,12.50
2013,08,10,02,50,12.50
2013,08,10,02,51,12.40
2013,08,10,02,52,12.40
2013,08,10,02,53,12.40
2013,08,10,02,54,12.40
2013,08,10,02,55,12.30
2013,08,10,02,56,12.30
2013,08,10,02,57,12.30
2013,08,10,02,58,12.20
2013,08,10,02,59,12.20
2013,08,10,03,00,12.20
2013,08,10,03,01,12.20
2013,08,10,03,02,12.20
2013,08,10,03,03,12.20
2013,08,10,03,04,12.20
2013,08,10,03,05,12.20
2013,08,10,03,06,12.20
2013,08,10,03,07,12.20
2013,08,10,03,08,12.20
2013,08,10,03,09,12.20
2013,08,10,03,10,12.20
2013,08,10,03,11,12.20
2013,08,10,03,12,12.10
2013,08,10,03,13,12.10
2013,08,10,03,14,12.10
2013,08,10,03,15,12.20
2013,08,10,03,16,12.20
2013,08,10,03,17,12.20
2013,08,10,03,18,12.20
2013,08,10,03,19,12.20
2013,08,10,03,20,12.20
2013,08,10,03,21,12.20
2013,08,10,03,22,12.20
2013,08,10,03,23,12.20
2013,08,10,03,24,12.30
2013,08,10,03,25,12.30
2013,08,10,03,26,12.30
2013,08,10,03,27,12.30
2013,08,10,03,28,12.30
2013,08,10,03,29,12.30
2013,08,10,03,30,12.30
2013,08,10,03,31,12.30
2013,08,10,03,32,12.30
2013,08,10,03,33,12.40
2013,08,10,03,34,12.40
2013,08,10,03,35,12.40
2013,08,10,03,36,12.40
2013,08,10,03,37,12.40
2013,08,10,03,38,12.40
2013,08,10,03,39,12.50
2013,08,10,03,40,12.50
2013,08,10,03,41,12.60
2013,08,10,03,42,12.60
2013,08,10,03,43,12.70
2013,08,10,03,44,12.80
2013,08,10,03,45,12.90
2013,08,10,03,46,13.00
2013,08,10,03,47,13.10
2013,08,10,03,48,13.10
2013,08,10,03,49,13.00
2013,08,10,03,50,13.00
2013,08,10,03,51,12.90
2013,08,10,03,52,12.90
2013,08,10,03,53,12.90
2013,08,10,03,54,12.90
2013,08,10,03,55,12.90
2013,08,10,03,56,12.90
2013,08,10,03,57,12.90
2013,08,10,03,58,12.90
2013,08,10,03,59,12.90
2013,08,10,04,00,13.00
2013,08,10,04,01,13.00
2013,08,10,04,02,13.00
2013,08,10,04,03,13.10
2013,08,10,04,04,13.10
2013,08,10,04,05,13.10
2013,08,10,04,06,13.20
2013,08,10,04,07,13.20
2013,08,10,04,08,13.20
2013,08,10,04,09,13.30
2013,08,10,04,10,13.30
2013,08,10,04,11,13.40
2013,08,10,04,12,13.40
2013,08,10,04,13,13.50
2013,08,10,04,14,13.50
2013,08,10,04,15,13.50
2013,08,10,04,16,13.60
2013,08,10,04,17,13.60
2013,08,10,04,18,13.60
2013,08,10,04,19,13.70
2013,08,10,04,20,13.70
2013,08,10,04,21,13.80
2013,08,10,04,22,13.80
2013,08,10,04,23,13.80
2013,08,10,04,24,13.90
2013,08,10,04,25,13.90
2013,08,10,04,26,14.00
2013,08,10,04,27,14.00
2013,08,10,04,28,14.10
2013,08,10,04,29,14.20
2013,08,10,04,30,14.30
2013,08,10,04,31,14.40
2013,08,10,04,32,14.50
2013,08,10,04,33,14.70
2013,08,10,04,34,14.90
2013,08,10,04,35,15.10
2013,08,10,04,36,15.40
2013,08,10,04,37,15.60
2013,08,10,04,38,15.70
2013,08,10,04,39,15.90
2013,08,10,04,40,16.00
2013,08,10,04,41,16.10
2013,08,10,04,42,16.20
2013,08,10,04,43,16.30
2013,08,10,04,44,16.40
2013,08,10,04,45,16.50
2013,08,10,04,46,16.60
2013,08,10,04,47,16.60
2013,08,10,04,48,16.70
2013,08,10,04,49,16.70
2013,08,10,04,50,16.70
2013,08,10,04,51,16.70
2013,08,10,04,52,16.70
2013,08,10,04,53,16.60
2013,08,10,04,54,16.60
2013,08,10,04,55,16.60
2013,08,10,04,56,16.60
2013,08,10,04,57,16.60
2013,08,10,04,58,16.60
2013,08,10,04,59,16.60
2013,08,10,05,00,16.60
2013,08,10,05,01,16.60
2013,08,10,05,02,16.60
2013,08,10,05,03,16.60
2013,08,10,05,04,16.60
2013,08,10,05,05,16.50
2013,08,10,05,06,16.30
2013,08,10,05,07,16.10
2013,08,10,05,08,15.90
2013,08,10,05,09,15.60
2013,08,10,05,10,15.40
2013,08,10,05,11,15.20
2013,08,10,05,12,15.10
2013,08,10,05,13,14.90
2013,08,10,05,14,14.80
2013,08,10,05,15,14.70
2013,08,10,05,16,14.60
2013,08,10,05,17,14.60
2013,08,10,05,18,14.50
2013,08,10,05,19,14.50
2013,08,10,05,20,14.40
2013,08,10,05,21,14.40
2013,08,10,05,22,14.30
2013,08,10,05,23,14.30
2013,08,10,05,24,14.30
2013,08,10,05,25,14.20
2013,08,10,05,26,14.20
2013,08,10,05,27,14.20
2013,08,10,05,28,14.20
2013,08,10,05,29,14.10
2013,08,10,05,30,14.00
2013,08,10,05,31,13.90
2013,08,10,05,32,13.90
2013,08,10,05,33,13.80
2013,08,10,05,34,13.80
2013,08,10,05,35,13.70
2013,08,10,05,36,13.60
2013,08,10,05,37,13.50
2013,08,10,05,38,13.50
2013,08,10,05,39,13.40
2013,08,10,05,40,13.40
2013,08,10,05,41,13.40
2013,08,10,05,42,13.30
2013,08,10,05,43,13.30
2013,08,10,05,44,13.30
2013,08,10,05,45,13.20
2013,08,10,05,46,13.20
2013,08,10,05,47,13.20
2013,08,10,05,48,13.20
2013,08,10,05,49,13.20
2013,08,10,05,50,13.20
2013,08,10,05,51,13.20
2013,08,10,05,52,13.20
2013,08,10,05,53,13.10
2013,08,10,05,54,13.10
2013,08,10,05,55,13.10
2013,08,10,05,56,13.10
2013,08,10,05,57,13.10
2013,08,10,05,58,13.10
2013,08,10,05,59,13.00
2013,08,10,06,00,13.00
2013,08,10,06,01,13.00
2013,08,10,06,02,13.00
2013,08,10,06,03,13.00
2013,08,10,06,04,13.00
2013,08,10,06,05,13.00
2013,08,10,06,06,13.00
2013,08,10,06,07,13.00
2013,08,10,06,08,13.00
2013,08,10,06,09,13.00
2013,08,10,06,10,13.00
2013,08,10,06,11,13.00
2013,08,10,06,12,12.90
2013,08,10,06,13,12.90
2013,08,10,06,14,12.90
2013,08,10,06,15,12.90
2013,08,10,06,16,12.90
2013,08,10,06,17,13.00
2013,08,10,06,18,13.00
2013,08,10,06,19,13.00
2013,08,10,06,20,13.00
2013,08,10,06,21,13.10
2013,08,10,06,22,13.10
2013,08,10,06,23,13.10
2013,08,10,06,24,13.10
2013,08,10,06,25,13.10
2013,08,10,06,26,13.20
2013,08,10,06,27,13.20
2013,08,10,06,28,13.20
2013,08,10,06,29,13.20
2013,08,10,06,30,13.30
2013,08,10,06,31,13.30
2013,08,10,06,32,13.30
2013,08,10,06,33,13.30
2013,08,10,06,34,13.30
2013,08,10,06,35,13.30
2013,08,10,06,36,13.30
2013,08,10,06,37,13.30
2013,08,10,06,38,13.30
2013,08,10,06,39,13.30
2013,08,10,06,40,13.30
2013,08,10,06,41,13.30
2013,08,10,06,42,13.30
2013,08,10,06,43,13.40
2013,08,10,06,44,13.40
2013,08,10,06,45,13.40
2013,08,10,06,46,13.40
2013,08,10,06,47,13.40
2013,08,10,06,48,13.40
2013,08,10,06,49,13.50
2013,08,10,06,50,13.50
2013,08,10,06,51,13.50
2013,08,10,06,52,13.60
2013,08,10,06,53,13.60
2013,08,10,06,54,13.60
2013,08,10,06,55,13.60
2013,08,10,06,56,13.60
2013,08,10,06,57,13.60
2013,08,10,06,58,13.70
2013,08,10,06,59,13.70
2013,08,10,07,00,13.70
2013,08,10,07,01,13.70
2013,08,10,07,02,13.70
2013,08,10,07,03,13.70
2013,08,10,07,04,13.70
2013,08,10,07,05,13.70
2013,08,10,07,06,13.70
2013,08,10,07,07,13.70
2013,08,10,07,08,13.70
2013,08,10,07,09,13.70
2013,08,10,07,10,13.70
2013,08,10,07,11,13.70
2013,08,10,07,12,13.70
2013,08,10,07,13,13.70
2013,08,10,07,14,13.70
2013,08,10,07,15,13.80
2013,08,10,07,16,13.80
2013,08,10,07,17,13.80
2013,08,10,07,18,13.80
2013,08,10,07,19,13.80
2013,08,10,07,20,13.80
2013,08,10,07,21,13.80
2013,08,10,07,22,13.80
2013,08,10,07,23,13.90
2013,08,10,07,24,13.90
2013,08,10,07,25,13.90
2013,08,10,07,26,13.90
2013,08,10,07,27,13.90
2013,08,10,07,28,13.90
2013,08,10,07,29,13.90
2013,08,10,07,30,14.00
2013,08,10,07,31,14.00
2013,08,10,07,32,14.00
2013,08,10,07,33,14.10
2013,08,10,07,34,14.10
2013,08,10,07,35,14.10
2013,08,10,07,36,14.10
2013,08,10,07,37,14.20
2013,08,10,07,38,14.20
2013,08,10,07,39,14.20
2013,08,10,07,40,14.30
2013,08,10,07,41,14.30
2013,08,10,07,42,14.30
2013,08,10,07,43,14.40
2013,08,10,07,44,14.40
2013,08,10,07,45,14.40
2013,08,10,07,46,14.40
2013,08,10,07,47,14.40
2013,08,10,07,48,14.50
2013,08,10,07,49,14.50
2013,08,10,07,50,14.50
2013,08,10,07,51,14.50
2013,08,10,07,52,14.60
2013,08,10,07,53,14.60
2013,08,10,07,54,14.60
2013,08,10,07,55,14.60
2013,08,10,07,56,14.70
2013,08,10,07,57,14.70
2013,08,10,07,58,14.70
2013,08,10,07,59,14.70
2013,08,10,08,00,14.80
2013,08,10,08,01,14.80
2013,08,10,08,02,14.80
2013,08,10,08,03,14.80
2013,08,10,08,04,14.80
2013,08,10,08,05,14.80
2013,08,10,08,06,14.90
2013,08,10,08,07,14.90
2013,08,10,08,08,15.00
2013,08,10,08,09,15.00
2013,08,10,08,10,15.00
2013,08,10,08,11,15.10
2013,08,10,08,12,15.10
2013,08,10,08,13,15.20
2013,08,10,08,14,15.20
2013,08,10,08,15,15.30
2013,08,10,08,16,15.30
2013,08,10,08,17,15.30
2013,08,10,08,18,15.40
2013,08,10,08,19,15.40
2013,08,10,08,20,15.50
2013,08,10,08,21,15.50
2013,08,10,08,22,15.60
2013,08,10,08,23,15.70
2013,08,10,08,24,15.70
2013,08,10,08,25,15.80
2013,08,10,08,26,15.90
2013,08,10,08,27,15.90
2013,08,10,08,28,16.00
2013,08,10,08,29,16.10
2013,08,10,08,30,16.20
2013,08,10,08,31,16.30
2013,08,10,08,32,16.30
2013,08,10,08,33,16.40
2013,08,10,08,34,16.40
2013,08,10,08,35,16.40
2013,08,10,08,36,16.50
2013,08,10,08,37,16.50
2013,08,10,08,38,16.50
2013,08,10,08,39,16.50
2013,08,10,08,40,16.50
2013,08,10,08,41,16.50
2013,08,10,08,42,16.50
2013,08,10,08,43,16.50
2013,08,10,08,44,16.50
2013,08,10,08,45,16.60
2013,08,10,08,46,16.60
2013,08,10,08,47,16.60
2013,08,10,08,48,16.60
2013,08,10,08,49,16.60
2013,08,10,08,50,16.60
2013,08,10,08,51,16.60
2013,08,10,08,52,16.50
2013,08,10,08,53,16.60
2013,08,10,08,54,16.60
2013,08,10,08,55,16.60
2013,08,10,08,56,16.60
2013,08,10,08,57,16.60
2013,08,10,08,58,16.60
2013,08,10,08,59,16.60
2013,08,10,09,00,16.60
2013,08,10,09,01,16.60
2013,08,10,09,02,16.60
2013,08,10,09,03,16.60
2013,08,10,09,04,16.60
2013,08,10,09,05,16.60
2013,08,10,09,06,16.60
2013,08,10,09,07,16.60
2013,08,10,09,08,16.60
2013,08,10,09,09,16.60
2013,08,10,09,10,16.60
2013,08,10,09,11,16.60
2013,08,10,09,12,16.60
2013,08,10,09,13,16.60
2013,08,10,09,14,16.60
2013,08,10,09,15,16.70
2013,08,10,09,16,16.70
2013,08,10,09,17,16.60
2013,08,10,09,18,16.70
2013,08,10,09,19,16.70
2013,08,10,09,20,16.70
2013,08,10,09,21,16.60
2013,08,10,09,22,16.60
2013,08,10,09,23,16.60
2013,08,10,09,24,16.50
2013,08,10,09,25,16.50
2013,08,10,09,26,16.40
2013,08,10,09,27,16.30
2013,08,10,09,28,16.30
2013,08,10,09,29,16.30
2013,08,10,09,30,16.20
2013,08,10,09,31,16.20
2013,08,10,09,32,16.20
2013,08,10,09,33,16.20
2013,08,10,09,34,16.20
2013,08,10,09,35,16.20
2013,08,10,09,36,16.20
2013,08,10,09,37,16.20
2013,08,10,09,38,16.20
2013,08,10,09,39,16.20
2013,08,10,09,40,16.20
2013,08,10,09,41,16.20
2013,08,10,09,42,16.30
2013,08,10,09,43,16.30
2013,08,10,09,44,16.30
2013,08,10,09,45,16.30
2013,08,10,09,46,16.30
2013,08,10,09,47,16.30
2013,08,10,09,48,16.40
2013,08,10,09,49,16.40
2013,08,10,09,50,16.40
2013,08,10,09,51,16.40
2013,08,10,09,52,16.40
2013,08,10,09,53,16.40
2013,08,10,09,54,16.40
2013,08,10,09,55,16.40
2013,08,10,09,56,16.40
2013,08,10,09,57,16.40
2013,08,10,09,58,16.50
2013,08,10,09,59,16.50
2013,08,10,10,00,16.60
2013,08,10,10,01,16.60
2013,08,10,10,02,16.60
2013,08,10,10,03,16.60
2013,08,10,10,04,16.60
2013,08,10,10,05,16.60
2013,08,10,10,06,16.70
2013,08,10,10,07,16.70
2013,08,10,10,08,16.70
2013,08,10,10,09,16.70
2013,08,10,10,10,16.70
2013,08,10,10,11,16.70
2013,08,10,10,12,16.70
2013,08,10,10,13,16.70
2013,08,10,10,14,16.70
2013,08,10,10,15,16.70
2013,08,10,10,16,16.70
2013,08,10,10,17,16.70
2013,08,10,10,18,16.70
2013,08,10,10,19,16.70
2013,08,10,10,20,16.70
2013,08,10,10,21,16.70
2013,08,10,10,22,16.70
2013,08,10,10,23,16.80
2013,08,10,10,24,16.80
2013,08,10,10,25,16.80
2013,08,10,10,26,16.80
2013,08,10,10,27,16.80
2013,08,10,10,28,16.80
2013,08,10,10,29,16.80
2013,08,10,10,30,16.90
2013,08,10,10,31,16.90
2013,08,10,10,32,16.90
2013,08,10,10,33,17.00
2013,08,10,10,34,17.00
2013,08,10,10,35,17.10
2013,08,10,10,36,17.10
2013,08,10,10,37,17.10
2013,08,10,10,38,17.10
2013,08,10,10,39,17.20
2013,08,10,10,40,17.20
2013,08,10,10,41,17.20
2013,08,10,10,42,17.20
2013,08,10,10,43,17.20
2013,08,10,10,44,17.20
2013,08,10,10,45,17.20
2013,08,10,10,46,17.20
2013,08,10,10,47,17.10
2013,08,10,10,48,17.10
2013,08,10,10,49,17.10
2013,08,10,10,50,17.10
2013,08,10,10,51,17.10
2013,08,10,10,52,17.10
2013,08,10,10,53,17.10
2013,08,10,10,54,17.20
2013,08,10,10,55,17.20
2013,08,10,10,56,17.20
2013,08,10,10,57,17.20
2013,08,10,10,58,17.20
2013,08,10,10,59,17.20
2013,08,10,11,00,17.20
2013,08,10,11,01,17.20
2013,08,10,11,02,17.20
2013,08,10,11,03,17.30
2013,08,10,11,04,17.30
2013,08,10,11,05,17.30
2013,08,10,11,06,17.30
2013,08,10,11,07,17.30
2013,08,10,11,08,17.40
2013,08,10,11,09,17.40
2013,08,10,11,10,17.40
2013,08,10,11,11,17.40
2013,08,10,11,12,17.40
2013,08,10,11,13,17.40
2013,08,10,11,14,17.40
2013,08,10,11,15,17.40
2013,08,10,11,16,17.40
2013,08,10,11,17,17.40
2013,08,10,11,18,17.40
2013,08,10,11,19,17.40
2013,08,10,11,20,17.40
2013,08,10,11,21,17.40
2013,08,10,11,22,17.40
2013,08,10,11,23,17.40
2013,08,10,11,24,17.40
2013,08,10,11,25,17.40
2013,08,10,11,26,17.30
2013,08,10,11,27,17.30
2013,08,10,11,28,17.30
2013,08,10,11,29,17.30
2013,08,10,11,30,17.30
2013,08,10,11,31,17.20
2013,08,10,11,32,17.20
2013,08,10,11,33,17.20
2013,08,10,11,34,17.20
2013,08,10,11,35,17.20
2013,08,10,11,36,17.20
2013,08,10,11,37,17.20
2013,08,10,11,38,17.20
2013,08,10,11,39,17.20
2013,08,10,11,40,17.20
2013,08,10,11,41,17.30
2013,08,10,11,42,17.30
2013,08,10,11,43,17.30
2013,08,10,11,44,17.30
2013,08,10,11,45,17.40
2013,08,10,11,46,17.40
2013,08,10,11,47,17.40
2013,08,10,11,48,17.50
2013,08,10,11,49,17.50
2013,08,10,11,50,17.50
2013,08,10,11,51,17.50
2013,08,10,11,52,17.50
2013,08,10,11,53,17.60
2013,08,10,11,54,17.60
2013,08,10,11,55,17.70
2013,08,10,11,56,17.80
2013,08,10,11,57,17.80
2013,08,10,11,58,17.80
2013,08,10,11,59,17.90
2013,08,10,12,00,17.90
2013,08,10,12,01,17.90
2013,08,10,12,02,17.90
2013,08,10,12,03,17.80
2013,08,10,12,04,17.80
2013,08,10,12,05,17.80
2013,08,10,12,06,17.80
2013,08,10,12,07,17.90
2013,08,10,12,08,18.00
2013,08,10,12,09,18.10
2013,08,10,12,10,18.20
2013,08,10,12,11,18.30
2013,08,10,12,12,18.40
2013,08,10,12,13,18.60
2013,08,10,12,14,18.70
2013,08,10,12,15,18.70
2013,08,10,12,16,18.80
2013,08,10,12,17,19.00
2013,08,10,12,18,19.10
2013,08,10,12,19,19.20
2013,08,10,12,20,19.30
2013,08,10,12,21,19.50
2013,08,10,12,22,19.60
2013,08,10,12,23,19.70
2013,08,10,12,24,19.90
2013,08,10,12,25,20.00
2013,08,10,12,26,20.10
2013,08,10,12,27,20.30
2013,08,10,12,28,20.40
2013,08,10,12,29,20.50
2013,08,10,12,30,20.60
2013,08,10,12,31,20.80
2013,08,10,12,32,20.80
2013,08,10,12,33,20.80
2013,08,10,12,34,20.70
2013,08,10,12,35,20.60
2013,08,10,12,36,20.60
2013,08,10,12,37,20.60
2013,08,10,12,38,20.60
2013,08,10,12,39,20.60
2013,08,10,12,40,20.60
2013,08,10,12,41,20.70
2013,08,10,12,42,20.60
2013,08,10,12,43,20.60
2013,08,10,12,44,20.60
2013,08,10,12,45,20.50
2013,08,10,12,46,20.50
2013,08,10,12,47,20.50
2013,08,10,12,48,20.40
2013,08,10,12,49,20.30
2013,08,10,12,50,20.30
2013,08,10,12,51,20.20
2013,08,10,12,52,20.20
2013,08,10,12,53,20.10
2013,08,10,12,54,20.20
2013,08,10,12,55,20.20
2013,08,10,12,56,20.20
2013,08,10,12,57,20.20
2013,08,10,12,58,20.20
2013,08,10,12,59,20.20
2013,08,10,13,00,20.20
2013,08,10,13,01,20.30
2013,08,10,13,02,20.30
2013,08,10,13,03,20.40
2013,08,10,13,04,20.50
2013,08,10,13,05,20.50
2013,08,10,13,06,20.50
2013,08,10,13,07,20.50
2013,08,10,13,08,20.50
2013,08,10,13,09,20.60
2013,08,10,13,10,20.60
2013,08,10,13,11,20.60
2013,08,10,13,12,20.60
2013,08,10,13,13,20.60
2013,08,10,13,14,20.60
2013,08,10,13,15,20.60
2013,08,10,13,16,20.70
2013,08,10,13,17,20.80
2013,08,10,13,18,21.00
2013,08,10,13,19,21.10
2013,08,10,13,20,21.10
2013,08,10,13,21,21.10
2013,08,10,13,22,21.10
2013,08,10,13,23,21.00
2013,08,10,13,24,21.00
2013,08,10,13,25,20.90
2013,08,10,13,26,20.80
2013,08,10,13,27,20.70
2013,08,10,13,28,20.70
2013,08,10,13,29,20.70
2013,08,10,13,30,20.80
2013,08,10,13,31,20.90
2013,08,10,13,32,21.00
2013,08,10,13,33,21.10
2013,08,10,13,34,21.20
2013,08,10,13,35,21.30
2013,08,10,13,36,21.40
2013,08,10,13,37,21.40
2013,08,10,13,38,21.50
2013,08,10,13,39,21.50
2013,08,10,13,40,21.40
2013,08,10,13,41,21.30
2013,08,10,13,42,21.10
2013,08,10,13,43,20.90
2013,08,10,13,44,20.80
2013,08,10,13,45,20.60
2013,08,10,13,46,20.40
2013,08,10,13,47,20.20
2013,08,10,13,48,20.10
2013,08,10,13,49,20.10
2013,08,10,13,50,20.10
2013,08,10,13,51,20.10
2013,08,10,13,52,20.00
2013,08,10,13,53,20.10
2013,08,10,13,54,20.10
2013,08,10,13,55,20.00
2013,08,10,13,56,19.80
2013,08,10,13,57,19.60
2013,08,10,13,58,19.50
2013,08,10,13,59,19.50
2013,08,10,14,00,19.50
2013,08,10,14,01,19.50
2013,08,10,14,02,19.50
2013,08,10,14,03,19.50
2013,08,10,14,04,19.40
2013,08,10,14,05,19.30
2013,08,10,14,06,19.30
2013,08,10,14,07,19.30
2013,08,10,14,08,19.30
2013,08,10,14,09,19.20
2013,08,10,14,10,19.10
2013,08,10,14,11,19.10
2013,08,10,14,12,19.00
2013,08,10,14,13,19.00
2013,08,10,14,14,18.90
2013,08,10,14,15,19.00
2013,08,10,14,16,19.00
2013,08,10,14,17,19.10
2013,08,10,14,18,19.20
2013,08,10,14,19,19.20
2013,08,10,14,20,19.20
2013,08,10,14,21,19.20
2013,08,10,14,22,19.10
2013,08,10,14,23,19.10
2013,08,10,14,24,19.20
2013,08,10,14,25,19.20
2013,08,10,14,26,19.40
2013,08,10,14,27,19.50
2013,08,10,14,28,19.60
2013,08,10,14,29,19.70
2013,08,10,14,30,19.70
2013,08,10,14,31,19.60
2013,08,10,14,32,19.50
2013,08,10,14,33,19.50
2013,08,10,14,34,19.60
2013,08,10,14,35,19.60
2013,08,10,14,36,19.60
2013,08,10,14,37,19.70
2013,08,10,14,38,19.70
2013,08,10,14,39,19.60
2013,08,10,14,40,19.70
2013,08,10,14,41,19.70
2013,08,10,14,42,19.70
2013,08,10,14,43,19.60
2013,08,10,14,44,19.60
2013,08,10,14,45,19.60
2013,08,10,14,46,19.60
2013,08,10,14,47,19.50
2013,08,10,14,48,19.50
2013,08,10,14,49,19.60
2013,08,10,14,50,19.60
2013,08,10,14,51,19.70
2013,08,10,14,52,19.80
2013,08,10,14,53,19.80
2013,08,10,14,54,19.80
2013,08,10,14,55,19.80
2013,08,10,14,56,19.90
2013,08,10,14,57,19.90
2013,08,10,14,58,19.80
2013,08,10,14,59,19.70
2013,08,10,15,00,19.70
2013,08,10,15,01,19.70
2013,08,10,15,02,19.80
2013,08,10,15,03,19.90
2013,08,10,15,04,20.00
2013,08,10,15,05,20.00
2013,08,10,15,06,20.10
2013,08,10,15,07,20.00
2013,08,10,15,08,20.00
2013,08,10,15,09,20.00
2013,08,10,15,10,20.10
2013,08,10,15,11,20.10
2013,08,10,15,12,20.20
2013,08,10,15,13,20.20
2013,08,10,15,14,20.20
2013,08,10,15,15,20.30
2013,08,10,15,16,20.40
2013,08,10,15,17,20.50
2013,08,10,15,18,20.60
2013,08,10,15,19,20.70
2013,08,10,15,20,20.80
2013,08,10,15,21,20.80
2013,08,10,15,22,20.80
2013,08,10,15,23,20.80
2013,08,10,15,24,20.80
2013,08,10,15,25,20.80
2013,08,10,15,26,20.90
2013,08,10,15,27,20.90
2013,08,10,15,28,20.90
2013,08,10,15,29,20.90
2013,08,10,15,30,20.90
2013,08,10,15,31,20.80
2013,08,10,15,32,20.70
2013,08,10,15,33,20.70
2013,08,10,15,34,20.70
2013,08,10,15,35,20.70
2013,08,10,15,36,20.70
2013,08,10,15,37,20.70
2013,08,10,15,38,20.80
2013,08,10,15,39,20.90
2013,08,10,15,40,20.90
2013,08,10,15,41,21.00
2013,08,10,15,42,21.10
2013,08,10,15,43,21.10
2013,08,10,15,44,21.20
2013,08,10,15,45,21.30
2013,08,10,15,46,21.30
2013,08,10,15,47,21.30
2013,08,10,15,48,21.40
2013,08,10,15,49,21.40
2013,08,10,15,50,21.40
2013,08,10,15,51,21.30
2013,08,10,15,52,21.20
2013,08,10,15,53,21.10
2013,08,10,15,54,21.00
2013,08,10,15,55,21.00
2013,08,10,15,56,20.90
2013,08,10,15,57,20.90
2013,08,10,15,58,20.90
2013,08,10,15,59,20.80
2013,08,10,16,00,20.80
2013,08,10,16,01,20.80
2013,08,10,16,02,20.90
2013,08,10,16,03,21.00
2013,08,10,16,04,21.10
2013,08,10,16,05,21.20
2013,08,10,16,06,21.20
2013,08,10,16,07,21.20
2013,08,10,16,08,21.20
2013,08,10,16,09,21.20
2013,08,10,16,10,21.20
2013,08,10,16,11,21.20
2013,08,10,16,12,21.30
2013,08,10,16,13,21.30
2013,08,10,16,14,21.30
2013,08,10,16,15,21.30
2013,08,10,16,16,21.30
2013,08,10,16,17,21.30
2013,08,10,16,18,21.30
2013,08,10,16,19,21.40
2013,08,10,16,20,21.40
2013,08,10,16,21,21.40
2013,08,10,16,22,21.40
2013,08,10,16,23,21.40
2013,08,10,16,24,21.50
2013,08,10,16,25,21.50
2013,08,10,16,26,21.50
2013,08,10,16,27,21.50
2013,08,10,16,28,21.60
2013,08,10,16,29,21.60
2013,08,10,16,30,21.70
2013,08,10,16,31,21.60
2013,08,10,16,32,21.60
2013,08,10,16,33,21.50
2013,08,10,16,34,21.50
2013,08,10,16,35,21.40
2013,08,10,16,36,21.40
2013,08,10,16,37,21.30
2013,08,10,16,38,21.30
2013,08,10,16,39,21.30
2013,08,10,16,40,21.20
2013,08,10,16,41,21.20
2013,08,10,16,42,21.20
2013,08,10,16,43,21.20
2013,08,10,16,44,21.20
2013,08,10,16,45,21.30
2013,08,10,16,46,21.40
2013,08,10,16,47,21.40
2013,08,10,16,48,21.50
2013,08,10,16,49,21.60
2013,08,10,16,50,21.70
2013,08,10,16,51,21.70
2013,08,10,16,52,21.80
2013,08,10,16,53,21.90
2013,08,10,16,54,22.00
2013,08,10,16,55,22.00
2013,08,10,16,56,22.10
2013,08,10,16,57,22.10
2013,08,10,16,58,22.10
2013,08,10,16,59,22.20
2013,08,10,17,00,22.20
2013,08,10,17,01,22.30
2013,08,10,17,02,22.40
2013,08,10,17,03,22.40
2013,08,10,17,04,22.50
2013,08,10,17,05,22.60
2013,08,10,17,06,22.70
2013,08,10,17,07,22.80
2013,08,10,17,08,22.90
2013,08,10,17,09,22.90
2013,08,10,17,10,23.00
2013,08,10,17,11,23.00
2013,08,10,17,12,23.10
2013,08,10,17,13,23.10
2013,08,10,17,14,23.20
2013,08,10,17,15,23.20
2013,08,10,17,16,23.10
2013,08,10,17,17,23.20
2013,08,10,17,18,23.10
2013,08,10,17,19,23.10